Regional Weather Roundup
Issued by NWS

Home | Current Version | Previous Version | Text Only | Print | Product List | Glossary On
Versions: 1 2 3 4 5 6 7 8 9 10 11 12 13 14 15 16 17 18 19 20 21 22 23 24 25 26 27 28 29 30 31 32 33 34 35 36 37 38 39 40 41 42 43 44 45 46 47 48 49 50
000
ASUS43 KIND 312209
RWRIN

WEATHER ROUNDUP FOR INDIANA
NATIONAL WEATHER SERVICE INDIANAPOLIS IN
600 PM EDT FRI OCT 31 2014

NOTE: "FAIR" INDICATES FEW OR NO CLOUDS BELOW 12,000 FEET WITH NO
SIGNIFICANT WEATHER AND/OR OBSTRUCTIONS TO VISIBILITY.

* - STATION DOES NOT REPORT WEATHER SUCH AS PRECIPITATION OR FOG.

+ - STATION NOT QUALITY CONTROLLED BY THE NATIONAL WEATHER SERVICE.
    USE DATA WITH CAUTION...ESPECIALLY DEWPOINT AND RELATIVE
    HUMIDITY OBSERVATIONS.

INZ001>003-010>013-019-020-312300-
NORTHWEST INDIANA

CITY           SKY/WX    TMP DP  RH WIND       PRES   REMARKS
GARY /AIRPORT/ LGT RAIN  41  32  70 N44G63    30.22R
KNOX *+        CLOUDY    35  32  88 N15       30.13R WCI  26
LA PORTE +     LGT SNOW  37  35  95 N24G38    30.15R
MICHIGAN CITY+ CLOUDY    37  30  75 N23G38    30.16R
MONTICELLO +   DRIZZLE   36  33  91 N24G32    30.10R
RENSSELAER +   LGT RAIN  37  36  93 N21G31    30.15R
VALPARAISO     FLURRIES  37  35  92 N18G44    30.15R

$$

LMZ046-743>745-312300-
SOUTHERN LAKE MICHIGAN

STATION/POSITION TIME  TEMP WIND        PRES
                       AIR  DIR/SP/G
                 (UTC) (F)  (DEG/KT/KT) (MB)
MICHIGAN CITY    2200   40  340/ 44/ 51   N/A

$$

INZ004-005-014>016-021>024-312300-
NORTH CENTRAL INDIANA

CITY           SKY/WX    TMP DP  RH WIND       PRES   REMARKS
ELKHART        CLOUDY    34  32  93 N9G18     30.12R WCI  26
GOSHEN         CLOUDY    36  32  85 N21G30    30.08R
LOGANSPORT +   CLOUDY    36  32  87 N26G37    30.08R
PERU/GRISSOM   LGT RAIN  37  37  99 N18G28    30.04R
ROCHESTER +    LGT SNOW  36  34  93 N21G28    30.08R
SOUTH BEND     CLOUDY    36  34  92 N22G29    30.13R
WARSAW +       LGT SNOW  32  32 100 N12G17    30.07R WCI  23

$$

INZ006>009-017-018-025>027-312300-
NORTHEAST INDIANA

CITY           SKY/WX    TMP DP  RH WIND       PRES   REMARKS
ANGOLA *+        N/A     34  18  51 N16G28    30.04R WCI  23
AUBURN +       LGT RAIN  36  32  87 N16G31    30.02R
FORT WAYNE     SLEET     37  34  89 N17G33    30.01R
HUNTINGTON +   LGT RAIN N/A N/A N/A N22G29    30.01R

$$

INZ028-029-035-036-043>045-051>053-312300-
WEST CENTRAL INDIANA

CITY           SKY/WX    TMP DP  RH WIND       PRES   REMARKS
GREENCASTLE +  LGT RAIN  36  32  87 NW17G28   30.07R
LAFAYETTE      LGT RAIN  36  34  92 N18G30    30.12R
TERRE HAUTE    LGT RAIN  41  26  55 NW20G32   30.12R

$$

INZ030>032-037>040-046>048-054>057-064-065-312300-
CENTRAL INDIANA

CITY           SKY/WX    TMP DP  RH WIND       PRES   REMARKS
CP ATTERBURY + LGT SNOW  34  32  93 NW13      30.02R WCI  25
COLUMBUS       CLOUDY    36  34  93 NW16      30.01R FOG
FRANKFORT +    CLOUDY    38  38 100 NW24G30   30.06R
INDIANAPOLIS   LGT SNOW  35  33  92 NW15G28   30.01R FOG     WCI  25
-EAGLE CREEK   LGT RAIN  38  35  89 NW16G25   30.01R
KOKOMO *+      CLOUDY    37  34  87 N23G31    30.03R
MARION +       LGT RAIN  37  33  87 N14G31    30.01R
MT COMFORT *+  CLOUDY    37  36  93 N18G26    29.99R
SHELBYVILLE    CLOUDY    38  34  85 NW13      29.98S
ZIONSVILLE +   DRIZZLE   38  34  84 N21G32    30.02R

$$

INZ033-034-041-042-049-050-058-059-312300-
EAST CENTRAL INDIANA

CITY           SKY/WX    TMP DP  RH WIND       PRES   REMARKS
MUNCIE         LGT RAIN  40  37  89 NW13      29.96R

$$

INZ060-061-067>069-081>083-085>088-312300-
SOUTHWEST INDIANA

CITY           SKY/WX    TMP DP  RH WIND       PRES   REMARKS
EVANSVILLE     CLOUDY    43  25  49 N15G35    30.17R
HUNTINGBURG *+ CLOUDY    41  28  60 N23G39    30.12R
WASHINGTON +   CLOUDY    38  33  83 NW24G33   30.12R

$$

INZ062-063-066-070>080-084-089>092-312300-
SOUTH CENTRAL AND SOUTHEAST INDIANA

CITY           SKY/WX    TMP DP  RH WIND       PRES   REMARKS
BEDFORD +      DRIZZLE   37  32  81 NW8G23    30.06
BLOOMINGTON    FLURRIES  37  31  78 NW15G24   30.06R

$$




USA.gov is the U.S. government's official web portal to all federal, state and local government web resources and services.